MSD YSSY-YSSY

Flight info

Callsign MSD
Flight time 0h 23m
Altitude 3000
Route SYDNEY HELI ROUTES
Aircraft H160/L-SBDGRY/S

Departure

Time 2026-04-26 05:44
Airport Sydney Kingsford Smith International Airport (YSSY)

Arrival

Time 2026-04-26 06:07
Airport Sydney Kingsford Smith International Airport (YSSY)
Time Latitude Longitude Altitude Speed Heading
2026-04-26 05:37 -33.94054 151.19129 29 ft 0 kts 312°
2026-04-26 05:39 -33.94053 151.19126 29 ft 1 kts 314°
2026-04-26 05:40 -33.94052 151.19126 29 ft 0 kts 314°
2026-04-26 05:43 -33.94051 151.19124 29 ft 0 kts 312°
2026-04-26 05:43 -33.94046 151.19116 43 ft 3 kts 302°
2026-04-26 05:43 -33.93999 151.19075 134 ft 25 kts 303°
2026-04-26 05:44 -33.93698 151.18887 269 ft 71 kts 341°
2026-04-26 05:44 -33.93199 151.18885 440 ft 72 kts
2026-04-26 05:44 -33.92710 151.18986 636 ft 72 kts
2026-04-26 05:44 -33.92086 151.18968 719 ft 103 kts 354°
2026-04-26 05:45 -33.91411 151.18870 785 ft 93 kts 356°
2026-04-26 05:45 -33.90789 151.18997 784 ft 92 kts 20°
2026-04-26 05:45 -33.90221 151.19353 787 ft 92 kts 31°
2026-04-26 05:45 -33.89679 151.19747 789 ft 92 kts 27°
2026-04-26 05:46 -33.89096 151.20066 789 ft 92 kts 19°
2026-04-26 05:46 -33.88482 151.20222 880 ft 89 kts
2026-04-26 05:46 -33.87891 151.20096 966 ft 84 kts 356°
2026-04-26 05:46 -33.87314 151.19989 998 ft 83 kts
2026-04-26 05:47 -33.86743 151.19958 996 ft 79 kts
2026-04-26 05:47 -33.86209 151.19901 815 ft 78 kts 354°
2026-04-26 05:47 -33.85655 151.19715 644 ft 87 kts 346°
2026-04-26 05:47 -33.85167 151.19272 566 ft 89 kts 314°
2026-04-26 05:48 -33.84878 151.18621 526 ft 89 kts 302°
2026-04-26 05:48 -33.84664 151.17915 513 ft 92 kts 292°
2026-04-26 05:48 -33.84603 151.17136 510 ft 99 kts 277°
2026-04-26 05:48 -33.84586 151.16294 505 ft 100 kts 295°
2026-04-26 05:49 -33.84228 151.15632 504 ft 96 kts 312°
2026-04-26 05:49 -33.84384 151.14022 494 ft 105 kts 252°
2026-04-26 05:49 -33.84311 151.13235 499 ft 90 kts 301°
2026-04-26 05:50 -33.84058 151.12561 496 ft 88 kts 302°
2026-04-26 05:50 -33.83838 151.11860 498 ft 91 kts 296°
2026-04-26 05:50 -33.83705 151.11118 500 ft 93 kts 288°
2026-04-26 05:50 -33.83527 151.10382 495 ft 92 kts 312°
2026-04-26 05:51 -33.83124 151.09843 502 ft 82 kts 335°
2026-04-26 05:51 -33.82614 151.09579 497 ft 84 kts 342°
2026-04-26 05:51 -33.82197 151.09048 501 ft 93 kts 296°
2026-04-26 05:51 -33.82091 151.08280 512 ft 93 kts 278°
2026-04-26 05:52 -33.82074 151.07507 615 ft 94 kts 263°
2026-04-26 05:52 -33.82312 151.06749 660 ft 101 kts 256°
2026-04-26 05:52 -33.82325 151.05928 692 ft 95 kts 288°
2026-04-26 05:52 -33.82118 151.05176 698 ft 96 kts 298°
2026-04-26 05:53 -33.81889 151.04430 704 ft 98 kts 292°
2026-04-26 05:53 -33.81753 151.03627 807 ft 99 kts 285°
2026-04-26 05:53 -33.81685 151.02844 927 ft 89 kts 281°
2026-04-26 05:53 -33.81594 151.02148 976 ft 79 kts 288°
2026-04-26 05:54 -33.81472 151.01547 997 ft 66 kts 288°
2026-04-26 05:54 -33.81343 151.01114 1003 ft 44 kts 288°
2026-04-26 05:54 -33.81264 151.00846 1002 ft 24 kts 288°
2026-04-26 05:54 -33.81238 151.00718 1000 ft 7 kts 287°
2026-04-26 05:55 -33.81239 151.00705 1004 ft 0 kts 288°
2026-04-26 05:55 -33.81239 151.00707 1002 ft 0 kts 288°
2026-04-26 05:55 -33.81232 151.00684 1005 ft 15 kts 287°
2026-04-26 05:55 -33.81155 151.00418 1018 ft 51 kts 300°
2026-04-26 05:56 -33.80972 151.00041 1017 ft 60 kts 312°
2026-04-26 05:56 -33.80637 150.99664 1023 ft 64 kts 352°
2026-04-26 05:56 -33.80296 150.99835 1022 ft 57 kts 60°
2026-04-26 05:56 -33.80429 151.00291 1025 ft 70 kts 135°
2026-04-26 05:57 -33.80938 151.00300 1023 ft 79 kts 207°
2026-04-26 05:57 -33.81187 150.99758 1017 ft 76 kts 278°
2026-04-26 05:57 -33.80927 150.99313 1019 ft 62 kts 352°
2026-04-26 05:57 -33.80603 150.99481 1024 ft 55 kts 67°
2026-04-26 05:58 -33.80725 150.99939 1025 ft 65 kts 121°
2026-04-26 05:58 -33.81093 151.00394 1015 ft 83 kts 134°
2026-04-26 05:58 -33.81524 151.00843 1013 ft 82 kts 125°
2026-04-26 05:58 -33.81841 151.01393 1017 ft 79 kts 110°
2026-04-26 05:59 -33.82141 151.01949 1020 ft 81 kts 126°
2026-04-26 05:59 -33.82648 151.02272 1025 ft 86 kts 154°
2026-04-26 05:59 -33.83251 151.02433 1019 ft 88 kts 154°
2026-04-26 05:59 -33.83794 151.02714 1017 ft 85 kts 141°
2026-04-26 06:00 -33.84266 151.03128 1026 ft 83 kts 132°
2026-04-26 06:00 -33.84727 151.03547 1017 ft 87 kts 139°
2026-04-26 06:00 -33.85271 151.03926 1020 ft 90 kts 143°
2026-04-26 06:00 -33.85773 151.04353 1011 ft 91 kts 132°
2026-04-26 06:01 -33.86241 151.04837 1019 ft 89 kts 130°
2026-04-26 06:01 -33.86730 151.05318 1016 ft 91 kts 137°
2026-04-26 06:01 -33.87268 151.05769 1017 ft 97 kts 137°
2026-04-26 06:01 -33.87800 151.06251 1021 ft 93 kts 132°
2026-04-26 06:02 -33.88317 151.06706 1019 ft 91 kts 137°
2026-04-26 06:02 -33.88813 151.07149 1017 ft 89 kts 133°
2026-04-26 06:02 -33.89246 151.07696 1019 ft 91 kts 121°
2026-04-26 06:02 -33.89559 151.08339 1019 ft 87 kts 106°
2026-04-26 06:03 -33.89804 151.09010 1019 ft 88 kts 109°
2026-04-26 06:03 -33.90086 151.09661 1018 ft 89 kts 109°
2026-04-26 06:03 -33.90359 151.10328 1018 ft 89 kts 106°
2026-04-26 06:03 -33.90631 151.10988 818 ft 89 kts 112°
2026-04-26 06:04 -33.90963 151.11618 647 ft 90 kts 116°
2026-04-26 06:04 -33.91339 151.12212 561 ft 88 kts 116°
2026-04-26 06:04 -33.91701 151.12796 541 ft 86 kts 116°
2026-04-26 06:04 -33.92041 151.13373 526 ft 83 kts 116°
2026-04-26 06:05 -33.92359 151.13938 527 ft 78 kts 115°
2026-04-26 06:05 -33.92648 151.14442 510 ft 68 kts 112°
2026-04-26 06:05 -33.92875 151.14894 510 ft 60 kts 104°
2026-04-26 06:05 -33.93084 151.15329 510 ft 66 kts 124°
2026-04-26 06:06 -33.93475 151.15649 513 ft 66 kts 126°
2026-04-26 06:06 -33.93715 151.16083 427 ft 60 kts 103°
2026-04-26 06:06 -33.93828 151.16540 371 ft 52 kts 88°
2026-04-26 06:06 -33.93906 151.16972 309 ft 53 kts 90°
2026-04-26 06:07 -33.93946 151.17394 283 ft 50 kts 82°
2026-04-26 06:07 -33.93929 151.17811 236 ft 50 kts 77°
2026-04-26 06:07 -33.93894 151.18184 168 ft 40 kts 72°
2026-04-26 06:07 -33.93871 151.18482 147 ft 32 kts 75°
2026-04-26 06:08 -33.93880 151.18725 113 ft 26 kts 75°
2026-04-26 06:08 -33.93893 151.18911 92 ft 20 kts 77°
2026-04-26 06:08 -33.93909 151.19047 42 ft 10 kts 75°
2026-04-26 06:08 -33.93910 151.19075 32 ft 4 kts 74°
2026-04-26 06:09 -33.93904 151.19087 23 ft 0 kts 79°
2026-04-26 06:16 -33.93903 151.19077 24 ft 6 kts 91°
2026-04-26 06:16 -33.93909 151.19064 46 ft 1 kts 90°
2026-04-26 06:17 -33.93874 151.19086 102 ft 10 kts 40°
2026-04-26 06:17 -33.93790 151.19055 206 ft 21 kts 328°
2026-04-26 06:17 -33.93946 151.18712 265 ft 70 kts 256°
2026-04-26 06:17 -33.94223 151.18272 363 ft 67 kts 247°
2026-04-26 06:18 -33.94464 151.17691 438 ft 81 kts 258°
2026-04-26 06:18 -33.94742 151.17104 460 ft 82 kts 238°
2026-04-26 06:18 -33.95139 151.16608 469 ft 84 kts 229°
2026-04-26 06:18 -33.95588 151.16184 477 ft 82 kts 213°
2026-04-26 06:19 -33.96076 151.15846 485 ft 81 kts 207°
2026-04-26 06:19 -33.96619 151.15515 484 ft 92 kts 204°
2026-04-26 06:19 -33.97214 151.15252 491 ft 91 kts 188°
2026-04-26 06:19 -33.97871 151.15042 470 ft 110 kts 191°
2026-04-26 06:20 -33.98616 151.14880 507 ft 105 kts 182°
2026-04-26 06:20 -33.99325 151.14912 494 ft 102 kts 152°
2026-04-26 06:20 -33.99871 151.15426 499 ft 100 kts 116°
2026-04-26 06:20 -34.00357 151.16017 503 ft 101 kts 140°
2026-04-26 06:21 -34.01043 151.16181 498 ft 103 kts 175°
2026-04-26 06:21 -34.01770 151.16123 495 ft 108 kts 180°
2026-04-26 06:21 -34.02549 151.16106 473 ft 124 kts 171°
2026-04-26 06:21 -34.03516 151.16248 474 ft 154 kts 167°
2026-04-26 06:22 -34.04541 151.16605 505 ft 151 kts 144°
2026-04-26 06:22 -34.05126 151.17577 479 ft 147 kts 97°
2026-04-26 06:22 -34.05174 151.18763 505 ft 140 kts 83°
2026-04-26 06:22 -34.05093 151.19920 501 ft 137 kts 75°
2026-04-26 06:23 -34.04837 151.21027 504 ft 137 kts 66°
2026-04-26 06:23 -34.04433 151.22022 504 ft 131 kts 59°
2026-04-26 06:23 -34.03865 151.22907 495 ft 136 kts 45°
2026-04-26 06:23 -34.03132 151.23658 446 ft 148 kts 38°
2026-04-26 06:24 -34.02214 151.24257 505 ft 146 kts 28°
2026-04-26 06:24 -34.01263 151.24766 487 ft 152 kts 25°
2026-04-26 06:24 -34.00317 151.25228 497 ft 146 kts 26°
2026-04-26 06:24 -33.99355 151.25651 486 ft 150 kts 22°
2026-04-26 06:25 -33.98370 151.26030 500 ft 147 kts 19°
2026-04-26 06:25 -33.97379 151.26370 499 ft 150 kts 19°
2026-04-26 06:25 -33.96390 151.26749 497 ft 148 kts 20°
2026-04-26 06:25 -33.95418 151.27182 499 ft 148 kts 24°
2026-04-26 06:26 -33.94794 151.27474 505 ft 143 kts 22°
2026-04-26 06:26 -33.93831 151.27911 502 ft 150 kts 20°
2026-04-26 06:26 -33.92501 151.28288 499 ft 150 kts 12°
2026-04-26 06:26 -33.91461 151.28416 497 ft 151 kts
2026-04-26 06:27 -33.90418 151.28473 495 ft 150 kts
2026-04-26 06:27 -33.89387 151.28585 502 ft 148 kts 12°
2026-04-26 06:27 -33.88387 151.28842 495 ft 148 kts 18°
2026-04-26 06:27 -33.87468 151.29215 575 ft 127 kts 25°
2026-04-26 06:28 -33.86945 151.29433 549 ft 114 kts 23°
2026-04-26 06:28 -33.86160 151.29618 505 ft 120 kts
2026-04-26 06:28 -33.85309 151.29599 510 ft 120 kts 359°
2026-04-26 06:28 -33.84499 151.29378 500 ft 120 kts 347°
2026-04-26 06:29 -33.83570 151.28641 503 ft 127 kts 319°
2026-04-26 06:29 -33.83270 151.27628 505 ft 136 kts 276°
2026-04-26 06:29 -33.83429 151.26870 500 ft 143 kts 246°
2026-04-26 06:29 -33.84395 151.25811 516 ft 137 kts 211°
2026-04-26 06:30 -33.84909 151.25401 514 ft 127 kts 213°
2026-04-26 06:30 -33.85540 151.24755 589 ft 116 kts 222°
2026-04-26 06:30 -33.86053 151.24067 796 ft 105 kts 231°
2026-04-26 06:30 -33.86585 151.23524 896 ft 96 kts 211°
2026-04-26 06:31 -33.87178 151.23247 939 ft 90 kts 192°
2026-04-26 06:31 -33.87767 151.23002 964 ft 89 kts 204°
2026-04-26 06:31 -33.88356 151.22680 940 ft 98 kts 205°
2026-04-26 06:31 -33.88970 151.22334 884 ft 96 kts 198°
2026-04-26 06:32 -33.89547 151.22474 801 ft 84 kts 115°
2026-04-26 06:32 -33.89407 151.22954 724 ft 70 kts 11°
2026-04-26 06:32 -33.89114 151.22486 714 ft 93 kts 265°
2026-04-26 06:32 -33.89612 151.22078 707 ft 93 kts 163°
2026-04-26 06:33 -33.89883 151.22586 705 ft 74 kts 77°
2026-04-26 06:33 -33.89677 151.23061 739 ft 66 kts 40°
2026-04-26 06:33 -33.89224 151.22968 751 ft 85 kts 319°
2026-04-26 06:33 -33.89250 151.22243 752 ft 98 kts 237°
2026-04-26 06:34 -33.89816 151.21863 581 ft 90 kts 195°
2026-04-26 06:34 -33.90398 151.21665 450 ft 84 kts 199°
2026-04-26 06:34 -33.90872 151.21320 447 ft 76 kts 215°
2026-04-26 06:34 -33.91277 151.20931 446 ft 73 kts 223°
2026-04-26 06:35 -33.91665 151.20545 444 ft 70 kts 229°
2026-04-26 06:35 -33.92174 151.20078 352 ft 68 kts 217°
2026-04-26 06:35 -33.92434 151.19869 303 ft 67 kts 215°
2026-04-26 06:35 -33.92831 151.19604 265 ft 61 kts 209°
2026-04-26 06:36 -33.93177 151.19400 238 ft 50 kts 199°
2026-04-26 06:36 -33.93456 151.19228 157 ft 41 kts 205°
2026-04-26 06:36 -33.93681 151.19124 80 ft 28 kts 204°
2026-04-26 06:36 -33.93847 151.19101 49 ft 18 kts 202°
2026-04-26 06:37 -33.93892 151.19092 29 ft 7 kts 202°